Weather History for Ithaca, NY

Change the Weather History Date:

Monday, May 20, 2013

  Actual Average Record
Temperature  
Mean Temperature 70 °F -  
Max Temperature 84 °F 69 °F 90 °F (1934)
Min Temperature 59 °F 46 °F 28 °F (2002)
Cooling Degree Days 6    
Growing Degree Days 20 (Base 50)    
Moisture  
Dew Point 59 °F    
Average Humidity 70    
Maximum Humidity 90    
Minimum Humidity 46    
Precipitation  
Precipitation 0.00 in - - ()
Sea Level Pressure  
Sea Level Pressure 30.03 in    
Wind  
Wind Speed 6 mph (South)    
Max Wind Speed 10 mph    
Max Gust Speed -    
Visibility 10 miles    
Events      
Averages and records for this station are not official NWS values.
T = Trace of Precipitation, MM = Missing Value Source: NWS Daily Summary

Daily Weather History Graph

Daily Weather History Graph

Search for Another Location

Airport:

Trip Planner

Search our weather history database for the weather conditions in past years. The results will help you decide how hot, cold, wet, or windy it might be!

Date:

Astronomy

May. 20, 2013 Rise Set
Actual Time 5:39 AM EDT 8:26 PM EDT
Civil Twilight 5:06 AM EDT 8:59 PM EDT
Nautical Twilight 4:24 AM EDT 9:40 PM EDT
Astronomical Twilight 3:37 AM EDT 10:28 PM EDT
Moon 3:25 PM EDT (5/20) 2:39 AM EDT (5/20)
Length of Visible Light 15h 52m
Length of Day
14h 47m
Waxing Gibbous, 75% of the Moon is Illuminated
May 20
Waxing Gibbous
May 25
Full
May 31
Last Quarter
Jun 8
New
Jun 16
First Quarter

Hourly Weather History & Observations

Time (EDT) Temp. Heat Index Dew Point Humidity Pressure Visibility Wind Dir Wind Speed Gust Speed Precip Events Conditions
12:56 AM 59.9 °F - 55.9 °F 87% 30.12 in 10.0 mi SSE 8.1 mph - N/A   Overcast
1:56 AM 59.9 °F - 55.9 °F 87% 30.09 in 10.0 mi SSE 8.1 mph - N/A   Overcast
2:56 AM 59.9 °F - 55.9 °F 87% 30.07 in 10.0 mi South 10.4 mph - N/A   Overcast
3:56 AM 59.9 °F - 55.9 °F 87% 30.07 in 10.0 mi South 5.8 mph - N/A   Overcast
4:56 AM 59.9 °F - 55.9 °F 87% 30.06 in 10.0 mi South 5.8 mph - N/A   Overcast
6:11 AM 60.8 °F - 57.2 °F 88% 30.07 in 10.0 mi SSE 4.6 mph - N/A   Overcast
6:56 AM 61.0 °F - 57.9 °F 90% 30.07 in 10.0 mi South 5.8 mph - N/A   Overcast
7:15 AM 62.6 °F - 57.2 °F 82% 30.09 in 10.0 mi South 4.6 mph - N/A   Scattered Clouds
7:41 AM 62.6 °F - 57.2 °F 82% 30.10 in 10.0 mi South 5.8 mph - N/A   Mostly Cloudy
7:56 AM 63.9 °F - 59.0 °F 84% 30.09 in 10.0 mi South 5.8 mph - N/A   Overcast
8:56 AM 68.0 °F - 59.9 °F 75% 30.09 in 10.0 mi SSW 3.5 mph - N/A   Scattered Clouds
9:56 AM 70.9 °F - 59.9 °F 68% 30.07 in 10.0 mi Calm Calm - N/A   Mostly Cloudy
10:56 AM 72.0 °F - 59.9 °F 66% 30.06 in 10.0 mi Calm Calm - N/A   Scattered Clouds
11:56 AM 77.0 °F - 61.0 °F 58% 30.03 in 10.0 mi Calm Calm - N/A   Scattered Clouds
12:56 PM 77.9 °F - 61.0 °F 56% 30.02 in 10.0 mi Calm Calm - N/A   Scattered Clouds
1:56 PM 77.9 °F - 61.0 °F 56% 30.00 in 10.0 mi East 3.5 mph - N/A   Scattered Clouds
2:56 PM 81.9 °F 82.2 °F 59.9 °F 47% 30.00 in 10.0 mi South 4.6 mph - N/A   Mostly Cloudy
3:56 PM 82.9 °F 83.2 °F 59.9 °F 46% 29.98 in 10.0 mi SW 6.9 mph - N/A   Mostly Cloudy
4:56 PM 82.9 °F 83.3 °F 61.0 °F 47% 29.96 in 10.0 mi SE 8.1 mph - N/A   Scattered Clouds
5:56 PM 82.9 °F 83.3 °F 61.0 °F 47% 29.96 in 10.0 mi SSE 5.8 mph - N/A   Scattered Clouds
6:56 PM 79.9 °F - 61.0 °F 52% 29.93 in 10.0 mi SSE 6.9 mph - N/A   Partly Cloudy
7:56 PM 77.0 °F - 59.9 °F 55% 29.92 in 10.0 mi South 8.1 mph - N/A   Clear
8:56 PM 72.9 °F - 59.9 °F 64% 29.95 in 10.0 mi SSE 4.6 mph - N/A   Clear
9:56 PM 70.0 °F - 59.9 °F 70% 29.96 in 10.0 mi South 6.9 mph - N/A   Clear
10:56 PM 70.0 °F - 61.0 °F 73% 29.95 in 10.0 mi SSE 5.8 mph - N/A   Clear
11:56 PM 68.0 °F - 61.0 °F 78% 29.96 in 10.0 mi South 5.8 mph - N/A   Clear